Year,Month,Day,Hour,Minute,Value (Times are PST for temperature in C)
2012,07,18,00,00,12.50
2012,07,18,00,01,12.40
2012,07,18,00,02,12.40
2012,07,18,00,03,12.40
2012,07,18,00,04,12.30
2012,07,18,00,05,12.30
2012,07,18,00,06,12.30
2012,07,18,00,07,12.20
2012,07,18,00,08,12.20
2012,07,18,00,09,12.20
2012,07,18,00,10,12.10
2012,07,18,00,11,12.10
2012,07,18,00,12,12.10
2012,07,18,00,13,12.00
2012,07,18,00,14,12.00
2012,07,18,00,15,11.90
2012,07,18,00,16,11.90
2012,07,18,00,17,11.90
2012,07,18,00,18,11.80
2012,07,18,00,19,11.80
2012,07,18,00,20,11.80
2012,07,18,00,21,11.70
2012,07,18,00,22,11.70
2012,07,18,00,23,11.70
2012,07,18,00,24,11.60
2012,07,18,00,25,11.60
2012,07,18,00,26,11.50
2012,07,18,00,27,11.50
2012,07,18,00,28,11.40
2012,07,18,00,29,11.40
2012,07,18,00,30,11.30
2012,07,18,00,31,11.30
2012,07,18,00,32,11.20
2012,07,18,00,33,11.20
2012,07,18,00,34,11.10
2012,07,18,00,35,11.10
2012,07,18,00,36,11.10
2012,07,18,00,37,11.00
2012,07,18,00,38,11.00
2012,07,18,00,39,11.00
2012,07,18,00,40,10.90
2012,07,18,00,41,10.90
2012,07,18,00,42,10.80
2012,07,18,00,43,10.80
2012,07,18,00,44,10.80
2012,07,18,00,45,10.80
2012,07,18,00,46,10.70
2012,07,18,00,47,10.70
2012,07,18,00,48,10.70
2012,07,18,00,49,10.70
2012,07,18,00,50,10.60
2012,07,18,00,51,10.60
2012,07,18,00,52,10.60
2012,07,18,00,53,10.60
2012,07,18,00,54,10.50
2012,07,18,00,55,10.50
2012,07,18,00,56,10.40
2012,07,18,00,57,10.40
2012,07,18,00,58,10.40
2012,07,18,00,59,10.40
2012,07,18,01,00,10.30
2012,07,18,01,01,10.30
2012,07,18,01,02,10.30
2012,07,18,01,03,10.30
2012,07,18,01,04,10.20
2012,07,18,01,05,10.20
2012,07,18,01,06,10.20
2012,07,18,01,07,10.20
2012,07,18,01,08,10.10
2012,07,18,01,09,10.10
2012,07,18,01,10,10.10
2012,07,18,01,11,10.10
2012,07,18,01,12,10.10
2012,07,18,01,13,10.00
2012,07,18,01,14,10.00
2012,07,18,01,15,10.00
2012,07,18,01,16,9.90
2012,07,18,01,17,9.90
2012,07,18,01,18,9.90
2012,07,18,01,19,9.90
2012,07,18,01,20,9.90
2012,07,18,01,21,9.80
2012,07,18,01,22,9.80
2012,07,18,01,23,9.80
2012,07,18,01,24,9.80
2012,07,18,01,25,9.80
2012,07,18,01,26,9.70
2012,07,18,01,27,9.70
2012,07,18,01,28,9.70
2012,07,18,01,29,9.70
2012,07,18,01,30,9.70
2012,07,18,01,31,9.70
2012,07,18,01,32,9.60
2012,07,18,01,33,9.60
2012,07,18,01,34,9.60
2012,07,18,01,35,9.60
2012,07,18,01,36,9.60
2012,07,18,01,37,9.50
2012,07,18,01,38,9.50
2012,07,18,01,39,9.50
2012,07,18,01,40,9.40
2012,07,18,01,41,9.40
2012,07,18,01,42,9.40
2012,07,18,01,43,9.40
2012,07,18,01,44,9.40
2012,07,18,01,45,9.30
2012,07,18,01,46,9.30
2012,07,18,01,47,9.30
2012,07,18,01,48,9.30
2012,07,18,01,49,9.30
2012,07,18,01,50,9.20
2012,07,18,01,51,9.20
2012,07,18,01,52,9.20
2012,07,18,01,53,9.20
2012,07,18,01,54,9.20
2012,07,18,01,55,9.10
2012,07,18,01,56,9.10
2012,07,18,01,57,9.10
2012,07,18,01,58,9.10
2012,07,18,01,59,9.10
2012,07,18,02,00,9.10
2012,07,18,02,01,9.00
2012,07,18,02,02,9.00
2012,07,18,02,03,9.00
2012,07,18,02,04,9.00
2012,07,18,02,05,8.90
2012,07,18,02,06,8.90
2012,07,18,02,07,8.90
2012,07,18,02,08,8.90
2012,07,18,02,09,8.90
2012,07,18,02,10,8.80
2012,07,18,02,11,8.80
2012,07,18,02,12,8.80
2012,07,18,02,13,8.80
2012,07,18,02,14,8.80
2012,07,18,02,15,8.80
2012,07,18,02,16,8.80
2012,07,18,02,17,8.80
2012,07,18,02,18,8.80
2012,07,18,02,19,8.70
2012,07,18,02,20,8.70
2012,07,18,02,21,8.70
2012,07,18,02,22,8.70
2012,07,18,02,23,8.70
2012,07,18,02,24,8.70
2012,07,18,02,25,8.60
2012,07,18,02,26,8.60
2012,07,18,02,27,8.60
2012,07,18,02,28,8.60
2012,07,18,02,29,8.60
2012,07,18,02,30,8.50
2012,07,18,02,31,8.50
2012,07,18,02,32,8.50
2012,07,18,02,33,8.50
2012,07,18,02,34,8.40
2012,07,18,02,35,8.40
2012,07,18,02,36,8.40
2012,07,18,02,37,8.40
2012,07,18,02,38,8.40
2012,07,18,02,39,8.30
2012,07,18,02,40,8.30
2012,07,18,02,41,8.30
2012,07,18,02,42,8.30
2012,07,18,02,43,8.30
2012,07,18,02,44,8.20
2012,07,18,02,45,8.20
2012,07,18,02,46,8.20
2012,07,18,02,47,8.20
2012,07,18,02,48,8.20
2012,07,18,02,49,8.20
2012,07,18,02,50,8.10
2012,07,18,02,51,8.10
2012,07,18,02,52,8.10
2012,07,18,02,53,8.10
2012,07,18,02,54,8.10
2012,07,18,02,55,8.10
2012,07,18,02,56,8.00
2012,07,18,02,57,8.00
2012,07,18,02,58,8.00
2012,07,18,02,59,8.00
2012,07,18,03,00,8.00
2012,07,18,03,01,7.90
2012,07,18,03,02,7.90
2012,07,18,03,03,7.90
2012,07,18,03,04,7.90
2012,07,18,03,05,7.90
2012,07,18,03,06,7.80
2012,07,18,03,07,7.80
2012,07,18,03,08,7.80
2012,07,18,03,09,7.80
2012,07,18,03,10,7.80
2012,07,18,03,11,7.80
2012,07,18,03,12,7.80
2012,07,18,03,13,7.80
2012,07,18,03,14,7.80
2012,07,18,03,15,7.70
2012,07,18,03,16,7.70
2012,07,18,03,17,7.70
2012,07,18,03,18,7.70
2012,07,18,03,19,7.70
2012,07,18,03,20,7.70
2012,07,18,03,21,7.70
2012,07,18,03,22,7.60
2012,07,18,03,23,7.60
2012,07,18,03,24,7.60
2012,07,18,03,25,7.60
2012,07,18,03,26,7.60
2012,07,18,03,27,7.60
2012,07,18,03,28,7.60
2012,07,18,03,29,7.60
2012,07,18,03,30,7.50
2012,07,18,03,31,7.50
2012,07,18,03,32,7.50
2012,07,18,03,33,7.50
2012,07,18,03,34,7.40
2012,07,18,03,35,7.40
2012,07,18,03,36,7.40
2012,07,18,03,37,7.40
2012,07,18,03,38,7.40
2012,07,18,03,39,7.40
2012,07,18,03,40,7.40
2012,07,18,03,41,7.40
2012,07,18,03,42,7.40
2012,07,18,03,43,7.40
2012,07,18,03,44,7.40
2012,07,18,03,45,7.30
2012,07,18,03,46,7.30
2012,07,18,03,47,7.30
2012,07,18,03,48,7.30
2012,07,18,03,49,7.30
2012,07,18,03,50,7.30
2012,07,18,03,51,7.30
2012,07,18,03,52,7.30
2012,07,18,03,53,7.30
2012,07,18,03,54,7.20
2012,07,18,03,55,7.20
2012,07,18,03,56,7.20
2012,07,18,03,57,7.20
2012,07,18,03,58,7.20
2012,07,18,03,59,7.20
2012,07,18,04,00,7.20
2012,07,18,04,01,7.20
2012,07,18,04,02,7.20
2012,07,18,04,03,7.20
2012,07,18,04,04,7.20
2012,07,18,04,05,7.20
2012,07,18,04,06,7.20
2012,07,18,04,07,7.20
2012,07,18,04,08,7.20
2012,07,18,04,09,7.20
2012,07,18,04,10,7.20
2012,07,18,04,11,7.20
2012,07,18,04,12,7.20
2012,07,18,04,13,7.20
2012,07,18,04,14,7.20
2012,07,18,04,15,7.20
2012,07,18,04,16,7.10
2012,07,18,04,17,7.10
2012,07,18,04,18,7.10
2012,07,18,04,19,7.10
2012,07,18,04,20,7.10
2012,07,18,04,21,7.00
2012,07,18,04,22,7.00
2012,07,18,04,23,7.00
2012,07,18,04,24,7.00
2012,07,18,04,25,7.00
2012,07,18,04,26,7.00
2012,07,18,04,27,6.90
2012,07,18,04,28,6.90
2012,07,18,04,29,6.90
2012,07,18,04,30,6.90
2012,07,18,04,31,6.90
2012,07,18,04,32,6.90
2012,07,18,04,33,6.90
2012,07,18,04,34,6.90
2012,07,18,04,35,6.90
2012,07,18,04,36,6.90
2012,07,18,04,37,6.90
2012,07,18,04,38,6.90
2012,07,18,04,39,6.90
2012,07,18,04,40,6.90
2012,07,18,04,41,6.80
2012,07,18,04,42,6.80
2012,07,18,04,43,6.80
2012,07,18,04,44,6.80
2012,07,18,04,45,6.80
2012,07,18,04,46,6.80
2012,07,18,04,47,6.80
2012,07,18,04,48,6.80
2012,07,18,04,49,6.70
2012,07,18,04,50,6.70
2012,07,18,04,51,6.70
2012,07,18,04,52,6.70
2012,07,18,04,53,6.70
2012,07,18,04,54,6.70
2012,07,18,04,55,6.70
2012,07,18,04,56,6.70
2012,07,18,04,57,6.70
2012,07,18,04,58,6.70
2012,07,18,04,59,6.60
2012,07,18,05,00,6.60
2012,07,18,05,01,6.60
2012,07,18,05,02,6.60
2012,07,18,05,03,6.60
2012,07,18,05,04,6.60
2012,07,18,05,05,6.60
2012,07,18,05,06,6.60
2012,07,18,05,07,6.60
2012,07,18,05,08,6.60
2012,07,18,05,09,6.50
2012,07,18,05,10,6.50
2012,07,18,05,11,6.50
2012,07,18,05,12,6.50
2012,07,18,05,13,6.50
2012,07,18,05,14,6.50
2012,07,18,05,15,6.50
2012,07,18,05,16,6.50
2012,07,18,05,17,6.50
2012,07,18,05,18,6.40
2012,07,18,05,19,6.40
2012,07,18,05,20,6.40
2012,07,18,05,21,6.40
2012,07,18,05,22,6.40
2012,07,18,05,23,6.40
2012,07,18,05,24,6.40
2012,07,18,05,25,6.40
2012,07,18,05,26,6.30
2012,07,18,05,27,6.30
2012,07,18,05,28,6.30
2012,07,18,05,29,6.40
2012,07,18,05,30,6.40
2012,07,18,05,31,6.40
2012,07,18,05,32,6.40
2012,07,18,05,33,6.40
2012,07,18,05,34,6.40
2012,07,18,05,35,6.40
2012,07,18,05,36,6.40
2012,07,18,05,37,6.40
2012,07,18,05,38,6.40
2012,07,18,05,39,6.40
2012,07,18,05,40,6.40
2012,07,18,05,41,6.40
2012,07,18,05,42,6.40
2012,07,18,05,43,6.40
2012,07,18,05,44,6.40
2012,07,18,05,45,6.40
2012,07,18,05,46,6.40
2012,07,18,05,47,6.40
2012,07,18,05,48,6.40
2012,07,18,05,49,6.40
2012,07,18,05,50,6.40
2012,07,18,05,51,6.40
2012,07,18,05,52,6.40
2012,07,18,05,53,6.40
2012,07,18,05,54,6.40
2012,07,18,05,55,6.40
2012,07,18,05,56,6.40
2012,07,18,05,57,6.40
2012,07,18,05,58,6.40
2012,07,18,05,59,6.40
2012,07,18,06,00,6.40
2012,07,18,06,01,6.40
2012,07,18,06,02,6.40
2012,07,18,06,03,6.50
2012,07,18,06,04,6.40
2012,07,18,06,05,6.40
2012,07,18,06,06,6.40
2012,07,18,06,07,6.40
2012,07,18,06,08,6.40
2012,07,18,06,09,6.50
2012,07,18,06,10,6.50
2012,07,18,06,11,6.50
2012,07,18,06,12,6.50
2012,07,18,06,13,6.50
2012,07,18,06,14,6.60
2012,07,18,06,15,6.60
2012,07,18,06,16,6.60
2012,07,18,06,17,6.60
2012,07,18,06,18,6.60
2012,07,18,06,19,6.60
2012,07,18,06,20,6.70
2012,07,18,06,21,6.70
2012,07,18,06,22,6.70
2012,07,18,06,23,6.70
2012,07,18,06,24,6.70
2012,07,18,06,25,6.70
2012,07,18,06,26,6.80
2012,07,18,06,27,6.80
2012,07,18,06,28,6.80
2012,07,18,06,29,6.80
2012,07,18,06,30,6.80
2012,07,18,06,31,6.80
2012,07,18,06,32,6.80
2012,07,18,06,33,6.80
2012,07,18,06,34,6.90
2012,07,18,06,35,6.90
2012,07,18,06,36,6.90
2012,07,18,06,37,7.00
2012,07,18,06,38,7.00
2012,07,18,06,39,7.10
2012,07,18,06,40,7.10
2012,07,18,06,41,7.10
2012,07,18,06,42,7.10
2012,07,18,06,43,7.10
2012,07,18,06,44,7.10
2012,07,18,06,45,7.10
2012,07,18,06,46,7.10
2012,07,18,06,47,7.10
2012,07,18,06,48,7.10
2012,07,18,06,49,7.10
2012,07,18,06,50,7.10
2012,07,18,06,51,7.10
2012,07,18,06,52,7.10
2012,07,18,06,53,7.10
2012,07,18,06,54,7.20
2012,07,18,06,55,7.20
2012,07,18,06,56,7.20
2012,07,18,06,57,7.20
2012,07,18,06,58,7.30
2012,07,18,06,59,7.30
2012,07,18,07,00,7.30
2012,07,18,07,01,7.30
2012,07,18,07,02,7.40
2012,07,18,07,03,7.40
2012,07,18,07,04,7.40
2012,07,18,07,05,7.50
2012,07,18,07,06,7.50
2012,07,18,07,07,7.50
2012,07,18,07,08,7.60
2012,07,18,07,09,7.60
2012,07,18,07,10,7.60
2012,07,18,07,11,7.60
2012,07,18,07,12,7.70
2012,07,18,07,13,7.70
2012,07,18,07,14,7.70
2012,07,18,07,15,7.70
2012,07,18,07,16,7.70
2012,07,18,07,17,7.70
2012,07,18,07,18,7.70
2012,07,18,07,19,7.70
2012,07,18,07,20,7.80
2012,07,18,07,21,7.80
2012,07,18,07,22,7.80
2012,07,18,07,23,7.80
2012,07,18,07,24,7.90
2012,07,18,07,25,7.90
2012,07,18,07,26,7.90
2012,07,18,07,27,8.00
2012,07,18,07,28,8.00
2012,07,18,07,29,8.00
2012,07,18,07,30,8.10
2012,07,18,07,31,8.10
2012,07,18,07,32,8.10
2012,07,18,07,33,8.10
2012,07,18,07,34,8.20
2012,07,18,07,35,8.20
2012,07,18,07,36,8.20
2012,07,18,07,37,8.20
2012,07,18,07,38,8.20
2012,07,18,07,39,8.20
2012,07,18,07,40,8.30
2012,07,18,07,41,8.30
2012,07,18,07,42,8.30
2012,07,18,07,43,8.30
2012,07,18,07,44,8.30
2012,07,18,07,45,8.30
2012,07,18,07,46,8.30
2012,07,18,07,47,8.30
2012,07,18,07,48,8.40
2012,07,18,07,49,8.40
2012,07,18,07,50,8.40
2012,07,18,07,51,8.40
2012,07,18,07,52,8.40
2012,07,18,07,53,8.50
2012,07,18,07,54,8.50
2012,07,18,07,55,8.50
2012,07,18,07,56,8.50
2012,07,18,07,57,8.60
2012,07,18,07,58,8.60
2012,07,18,07,59,8.60
2012,07,18,08,00,8.60
2012,07,18,08,01,8.60
2012,07,18,08,02,8.70
2012,07,18,08,03,8.70
2012,07,18,08,04,8.70
2012,07,18,08,05,8.70
2012,07,18,08,06,8.70
2012,07,18,08,07,8.70
2012,07,18,08,08,8.70
2012,07,18,08,09,8.70
2012,07,18,08,10,8.80
2012,07,18,08,11,8.80
2012,07,18,08,12,8.80
2012,07,18,08,13,8.80
2012,07,18,08,14,8.80
2012,07,18,08,15,8.80
2012,07,18,08,16,8.80
2012,07,18,08,17,8.90
2012,07,18,08,18,8.90
2012,07,18,08,19,8.90
2012,07,18,08,20,8.90
2012,07,18,08,21,8.90
2012,07,18,08,22,8.90
2012,07,18,08,23,8.90
2012,07,18,08,24,8.90
2012,07,18,08,25,9.00
2012,07,18,08,26,9.00
2012,07,18,08,27,9.00
2012,07,18,08,28,9.00
2012,07,18,08,29,9.00
2012,07,18,08,30,9.10
2012,07,18,08,31,9.10
2012,07,18,08,32,9.10
2012,07,18,08,33,9.10
2012,07,18,08,34,9.10
2012,07,18,08,35,9.10
2012,07,18,08,36,9.20
2012,07,18,08,37,9.20
2012,07,18,08,38,9.30
2012,07,18,08,39,9.30
2012,07,18,08,40,9.30
2012,07,18,08,41,9.40
2012,07,18,08,42,9.40
2012,07,18,08,43,9.40
2012,07,18,08,44,9.50
2012,07,18,08,45,9.50
2012,07,18,08,46,9.50
2012,07,18,08,47,9.50
2012,07,18,08,48,9.60
2012,07,18,08,49,9.60
2012,07,18,08,50,9.60
2012,07,18,08,51,9.60
2012,07,18,08,52,9.60
2012,07,18,08,53,9.60
2012,07,18,08,54,9.60
2012,07,18,08,55,9.60
2012,07,18,08,56,9.60
2012,07,18,08,57,9.60
2012,07,18,08,58,9.50
2012,07,18,08,59,9.50
2012,07,18,09,00,9.50
2012,07,18,09,01,9.50
2012,07,18,09,02,9.50
2012,07,18,09,03,9.40
2012,07,18,09,04,9.40
2012,07,18,09,05,9.40
2012,07,18,09,06,9.40
2012,07,18,09,07,9.40
2012,07,18,09,08,9.40
2012,07,18,09,09,9.50
2012,07,18,09,10,9.50
2012,07,18,09,11,9.50
2012,07,18,09,12,9.60
2012,07,18,09,13,9.60
2012,07,18,09,14,9.60
2012,07,18,09,15,9.60
2012,07,18,09,16,9.70
2012,07,18,09,17,9.70
2012,07,18,09,18,9.70
2012,07,18,09,19,9.70
2012,07,18,09,20,9.80
2012,07,18,09,21,9.80
2012,07,18,09,22,9.80
2012,07,18,09,23,9.80
2012,07,18,09,24,9.80
2012,07,18,09,25,9.90
2012,07,18,09,26,9.90
2012,07,18,09,27,9.90
2012,07,18,09,28,9.90
2012,07,18,09,29,10.00
2012,07,18,09,30,10.00
2012,07,18,09,31,10.00
2012,07,18,09,32,10.00
2012,07,18,09,33,10.10
2012,07,18,09,34,10.10
2012,07,18,09,35,10.10
2012,07,18,09,36,10.10
2012,07,18,09,37,10.10
2012,07,18,09,38,10.10
2012,07,18,09,39,10.10
2012,07,18,09,40,10.10
2012,07,18,09,41,10.10
2012,07,18,09,42,10.10
2012,07,18,09,43,10.10
2012,07,18,09,44,10.10
2012,07,18,09,45,10.10
2012,07,18,09,46,10.10
2012,07,18,09,47,10.20
2012,07,18,09,48,10.20
2012,07,18,09,49,10.20
2012,07,18,09,50,10.20
2012,07,18,09,51,10.20
2012,07,18,09,52,10.30
2012,07,18,09,53,10.30
2012,07,18,09,54,10.30
2012,07,18,09,55,10.30
2012,07,18,09,56,10.30
2012,07,18,09,57,10.40
2012,07,18,09,58,10.40
2012,07,18,09,59,10.40
2012,07,18,10,00,10.50
2012,07,18,10,01,10.50
2012,07,18,10,02,10.50
2012,07,18,10,03,10.50
2012,07,18,10,04,10.60
2012,07,18,10,05,10.60
2012,07,18,10,06,10.60
2012,07,18,10,07,10.60
2012,07,18,10,08,10.60
2012,07,18,10,09,10.60
2012,07,18,10,10,10.70
2012,07,18,10,11,10.70
2012,07,18,10,12,10.70
2012,07,18,10,13,10.70
2012,07,18,10,14,10.80
2012,07,18,10,15,10.80
2012,07,18,10,16,10.80
2012,07,18,10,17,10.80
2012,07,18,10,18,10.80
2012,07,18,10,19,10.80
2012,07,18,10,20,10.80
2012,07,18,10,21,10.90
2012,07,18,10,22,10.90
2012,07,18,10,23,10.90
2012,07,18,10,24,11.00
2012,07,18,10,25,11.00
2012,07,18,10,26,11.10
2012,07,18,10,27,11.10
2012,07,18,10,28,11.20
2012,07,18,10,29,11.20
2012,07,18,10,30,11.20
2012,07,18,10,31,11.30
2012,07,18,10,32,11.30
2012,07,18,10,33,11.40
2012,07,18,10,34,11.50
2012,07,18,10,35,11.50
2012,07,18,10,36,11.60
2012,07,18,10,37,11.60
2012,07,18,10,38,11.70
2012,07,18,10,39,11.80
2012,07,18,10,40,11.80
2012,07,18,10,41,11.90
2012,07,18,10,42,11.90
2012,07,18,10,43,12.00
2012,07,18,10,44,12.00
2012,07,18,10,45,12.10
2012,07,18,10,46,12.10
2012,07,18,10,47,12.10
2012,07,18,10,48,12.20
2012,07,18,10,49,12.20
2012,07,18,10,50,12.30
2012,07,18,10,51,12.30
2012,07,18,10,52,12.40
2012,07,18,10,53,12.40
2012,07,18,10,54,12.50
2012,07,18,10,55,12.50
2012,07,18,10,56,12.60
2012,07,18,10,57,12.70
2012,07,18,10,58,12.70
2012,07,18,10,59,12.80
2012,07,18,11,00,12.80
2012,07,18,11,01,12.80
2012,07,18,11,02,12.80
2012,07,18,11,03,12.80
2012,07,18,11,04,12.80
2012,07,18,11,05,12.80
2012,07,18,11,06,12.90
2012,07,18,11,07,12.90
2012,07,18,11,08,12.90
2012,07,18,11,09,13.00
2012,07,18,11,10,13.00
2012,07,18,11,11,13.10
2012,07,18,11,12,13.20
2012,07,18,11,13,13.20
2012,07,18,11,14,13.30
2012,07,18,11,15,13.30
2012,07,18,11,16,13.40
2012,07,18,11,17,13.40
2012,07,18,11,18,13.50
2012,07,18,11,19,13.50
2012,07,18,11,20,13.60
2012,07,18,11,21,13.70
2012,07,18,11,22,13.80
2012,07,18,11,23,13.90
2012,07,18,11,24,14.00
2012,07,18,11,25,14.20
2012,07,18,11,26,14.30
2012,07,18,11,27,14.30
2012,07,18,11,28,14.40
2012,07,18,11,29,14.50
2012,07,18,11,30,14.50
2012,07,18,11,31,14.50
2012,07,18,11,32,14.50
2012,07,18,11,33,14.50
2012,07,18,11,34,14.50
2012,07,18,11,35,14.50
2012,07,18,11,36,14.60
2012,07,18,11,37,14.60
2012,07,18,11,38,14.70
2012,07,18,11,39,14.70
2012,07,18,11,40,14.80
2012,07,18,11,41,14.90
2012,07,18,11,42,14.90
2012,07,18,11,43,15.00
2012,07,18,11,44,15.10
2012,07,18,11,45,15.10
2012,07,18,11,46,15.20
2012,07,18,11,47,15.30
2012,07,18,11,48,15.30
2012,07,18,11,49,15.30
2012,07,18,11,50,15.40
2012,07,18,11,51,15.40
2012,07,18,11,52,15.50
2012,07,18,11,53,15.50
2012,07,18,11,54,15.50
2012,07,18,11,55,15.50
2012,07,18,11,56,15.50
2012,07,18,11,57,15.60
2012,07,18,11,58,15.60
2012,07,18,11,59,15.60
2012,07,18,12,00,15.60
2012,07,18,12,01,15.60
2012,07,18,12,02,15.70
2012,07,18,12,03,15.70
2012,07,18,12,04,15.70
2012,07,18,12,05,15.70
2012,07,18,12,06,15.70
2012,07,18,12,07,15.80
2012,07,18,12,08,15.80
2012,07,18,12,09,15.80
2012,07,18,12,10,15.80
2012,07,18,12,11,15.80
2012,07,18,12,12,15.80
2012,07,18,12,13,15.80
2012,07,18,12,14,15.90
2012,07,18,12,15,16.00
2012,07,18,12,16,16.10
2012,07,18,12,17,16.20
2012,07,18,12,18,16.20
2012,07,18,12,19,16.30
2012,07,18,12,20,16.30
2012,07,18,12,21,16.40
2012,07,18,12,22,16.40
2012,07,18,12,23,16.40
2012,07,18,12,24,16.50
2012,07,18,12,25,16.50
2012,07,18,12,26,16.50
2012,07,18,12,27,16.50
2012,07,18,12,28,16.50
2012,07,18,12,29,16.40
2012,07,18,12,30,16.40
2012,07,18,12,31,16.40
2012,07,18,12,32,16.40
2012,07,18,12,33,16.40
2012,07,18,12,34,16.40
2012,07,18,12,35,16.40
2012,07,18,12,36,16.40
2012,07,18,12,37,16.40
2012,07,18,12,38,16.40
2012,07,18,12,39,16.30
2012,07,18,12,40,16.30
2012,07,18,12,41,16.30
2012,07,18,12,42,16.20
2012,07,18,12,43,16.20
2012,07,18,12,44,16.10
2012,07,18,12,45,16.00
2012,07,18,12,46,16.00
2012,07,18,12,47,16.00
2012,07,18,12,48,16.00
2012,07,18,12,49,16.00
2012,07,18,12,50,15.90
2012,07,18,12,51,15.90
2012,07,18,12,52,15.90
2012,07,18,12,53,15.90
2012,07,18,12,54,15.90
2012,07,18,12,55,16.00
2012,07,18,12,56,16.00
2012,07,18,12,57,16.10
2012,07,18,12,58,16.10
2012,07,18,12,59,16.20
2012,07,18,13,00,16.20
2012,07,18,13,01,16.20
2012,07,18,13,02,16.20
2012,07,18,13,03,16.20
2012,07,18,13,04,16.20
2012,07,18,13,05,16.20
2012,07,18,13,06,16.20
2012,07,18,13,07,16.20
2012,07,18,13,08,16.20
2012,07,18,13,09,16.20
2012,07,18,13,10,16.20
2012,07,18,13,11,16.20
2012,07,18,13,12,16.20
2012,07,18,13,13,16.30
2012,07,18,13,14,16.30
2012,07,18,13,15,16.30
2012,07,18,13,16,16.30
2012,07,18,13,17,16.30
2012,07,18,13,18,16.30
2012,07,18,13,19,16.20
2012,07,18,13,20,16.10
2012,07,18,13,21,16.10
2012,07,18,13,22,16.00
2012,07,18,13,23,16.00
2012,07,18,13,24,15.90
2012,07,18,13,25,15.90
2012,07,18,13,26,15.80
2012,07,18,13,27,15.80
2012,07,18,13,28,15.80
2012,07,18,13,29,15.80
2012,07,18,13,30,15.80
2012,07,18,13,31,15.80
2012,07,18,13,32,15.80
2012,07,18,13,33,15.70
2012,07,18,13,34,15.70
2012,07,18,13,35,15.70
2012,07,18,13,36,15.70
2012,07,18,13,37,15.70
2012,07,18,13,38,15.70
2012,07,18,13,39,15.70
2012,07,18,13,40,15.70
2012,07,18,13,41,15.70
2012,07,18,13,42,15.70
2012,07,18,13,43,15.70
2012,07,18,13,44,15.70
2012,07,18,13,45,15.70
2012,07,18,13,46,15.80
2012,07,18,13,47,15.80
2012,07,18,13,48,15.80
2012,07,18,13,49,15.80
2012,07,18,13,50,15.80
2012,07,18,13,51,15.80
2012,07,18,13,52,15.80
2012,07,18,13,53,15.90
2012,07,18,13,54,15.90
2012,07,18,13,55,16.00
2012,07,18,13,56,16.00
2012,07,18,13,57,16.10
2012,07,18,13,58,16.20
2012,07,18,13,59,16.30
2012,07,18,14,00,16.30
2012,07,18,14,01,16.40
2012,07,18,14,02,16.50
2012,07,18,14,03,16.50
2012,07,18,14,04,16.60
2012,07,18,14,05,16.60
2012,07,18,14,06,16.60
2012,07,18,14,07,16.60
2012,07,18,14,08,16.60
2012,07,18,14,09,16.60
2012,07,18,14,10,16.60
2012,07,18,14,11,16.60
2012,07,18,14,12,16.60
2012,07,18,14,13,16.50
2012,07,18,14,14,16.50
2012,07,18,14,15,16.50
2012,07,18,14,16,16.50
2012,07,18,14,17,16.50
2012,07,18,14,18,16.50
2012,07,18,14,19,16.50
2012,07,18,14,20,16.40
2012,07,18,14,21,16.40
2012,07,18,14,22,16.40
2012,07,18,14,23,16.40
2012,07,18,14,24,16.40
2012,07,18,14,25,16.50
2012,07,18,14,26,16.50
2012,07,18,14,27,16.60
2012,07,18,14,28,16.60
2012,07,18,14,29,16.60
2012,07,18,14,30,16.60
2012,07,18,14,31,16.60
2012,07,18,14,32,16.70
2012,07,18,14,33,16.70
2012,07,18,14,34,16.70
2012,07,18,14,35,16.70
2012,07,18,14,36,16.70
2012,07,18,14,37,16.70
2012,07,18,14,38,16.70
2012,07,18,14,39,16.80
2012,07,18,14,40,16.80
2012,07,18,14,41,16.90
2012,07,18,14,42,16.90
2012,07,18,14,43,16.90
2012,07,18,14,44,16.90
2012,07,18,14,45,16.90
2012,07,18,14,46,16.80
2012,07,18,14,47,16.80
2012,07,18,14,48,16.80
2012,07,18,14,49,16.80
2012,07,18,14,50,16.90
2012,07,18,14,51,16.90
2012,07,18,14,52,16.90
2012,07,18,14,53,17.00
2012,07,18,14,54,17.00
2012,07,18,14,55,17.10
2012,07,18,14,56,17.10
2012,07,18,14,57,17.10
2012,07,18,14,58,17.20
2012,07,18,14,59,17.20
2012,07,18,15,00,17.30
2012,07,18,15,01,17.30
2012,07,18,15,02,17.30
2012,07,18,15,03,17.30
2012,07,18,15,04,17.30
2012,07,18,15,05,17.30
2012,07,18,15,06,17.30
2012,07,18,15,07,17.30
2012,07,18,15,08,17.30
2012,07,18,15,09,17.30
2012,07,18,15,10,17.30
2012,07,18,15,11,17.30
2012,07,18,15,12,17.40
2012,07,18,15,13,17.40
2012,07,18,15,14,17.50
2012,07,18,15,15,17.60
2012,07,18,15,16,17.60
2012,07,18,15,17,17.60
2012,07,18,15,18,17.70
2012,07,18,15,19,17.70
2012,07,18,15,20,17.80
2012,07,18,15,21,17.80
2012,07,18,15,22,17.80
2012,07,18,15,23,17.80
2012,07,18,15,24,17.80
2012,07,18,15,25,17.80
2012,07,18,15,26,17.80
2012,07,18,15,27,17.80
2012,07,18,15,28,17.90
2012,07,18,15,29,17.90
2012,07,18,15,30,18.00
2012,07,18,15,31,18.00
2012,07,18,15,32,18.10
2012,07,18,15,33,18.10
2012,07,18,15,34,18.10
2012,07,18,15,35,18.00
2012,07,18,15,36,18.00
2012,07,18,15,37,18.10
2012,07,18,15,38,18.10
2012,07,18,15,39,18.10
2012,07,18,15,40,18.00
2012,07,18,15,41,18.00
2012,07,18,15,42,17.90
2012,07,18,15,43,17.90
2012,07,18,15,44,17.80
2012,07,18,15,45,17.70
2012,07,18,15,46,17.70
2012,07,18,15,47,17.60
2012,07,18,15,48,17.60
2012,07,18,15,49,17.60
2012,07,18,15,50,17.50
2012,07,18,15,51,17.50
2012,07,18,15,52,17.50
2012,07,18,15,53,17.50
2012,07,18,15,54,17.60
2012,07,18,15,55,17.60
2012,07,18,15,56,17.50
2012,07,18,15,57,17.50
2012,07,18,15,58,17.50
2012,07,18,15,59,17.50
2012,07,18,16,00,17.40
2012,07,18,16,01,17.40
2012,07,18,16,02,17.40
2012,07,18,16,03,17.50
2012,07,18,16,04,17.50
2012,07,18,16,05,17.60
2012,07,18,16,06,17.60
2012,07,18,16,07,17.60
2012,07,18,16,08,17.60
2012,07,18,16,09,17.60
2012,07,18,16,10,17.50
2012,07,18,16,11,17.60
2012,07,18,16,12,17.60
2012,07,18,16,13,17.60
2012,07,18,16,14,17.60
2012,07,18,16,15,17.60
2012,07,18,16,16,17.60
2012,07,18,16,17,17.60
2012,07,18,16,18,17.60
2012,07,18,16,19,17.60
2012,07,18,16,20,17.70
2012,07,18,16,21,17.70
2012,07,18,16,22,17.70
2012,07,18,16,23,17.80
2012,07,18,16,24,17.90
2012,07,18,16,25,17.90
2012,07,18,16,26,18.00
2012,07,18,16,27,18.00
2012,07,18,16,28,18.00
2012,07,18,16,29,18.00
2012,07,18,16,30,17.90
2012,07,18,16,31,17.90
2012,07,18,16,32,17.90
2012,07,18,16,33,17.90
2012,07,18,16,34,17.80
2012,07,18,16,35,17.80
2012,07,18,16,36,17.80
2012,07,18,16,37,17.80
2012,07,18,16,38,17.80
2012,07,18,16,39,17.80
2012,07,18,16,40,17.90
2012,07,18,16,41,17.90
2012,07,18,16,42,17.90
2012,07,18,16,43,17.90
2012,07,18,16,44,17.90
2012,07,18,16,45,17.80
2012,07,18,16,46,17.80
2012,07,18,16,47,17.80
2012,07,18,16,48,17.70
2012,07,18,16,49,17.70
2012,07,18,16,50,17.70
2012,07,18,16,51,17.70
2012,07,18,16,52,17.70
2012,07,18,16,53,17.70
2012,07,18,16,54,17.80
2012,07,18,16,55,17.80
2012,07,18,16,56,17.80
2012,07,18,16,57,17.90
2012,07,18,16,58,17.90
2012,07,18,16,59,17.90
2012,07,18,17,00,18.00
2012,07,18,17,01,18.00
2012,07,18,17,02,18.10
2012,07,18,17,03,18.20
2012,07,18,17,04,18.20
2012,07,18,17,05,18.20
2012,07,18,17,06,18.20
2012,07,18,17,07,18.30
2012,07,18,17,08,18.30
2012,07,18,17,09,18.30
2012,07,18,17,10,18.30
2012,07,18,17,11,18.30
2012,07,18,17,12,18.30
2012,07,18,17,13,18.30
2012,07,18,17,14,18.30
2012,07,18,17,15,18.30
2012,07,18,17,16,18.30
2012,07,18,17,17,18.30
2012,07,18,17,18,18.30
2012,07,18,17,19,18.30
2012,07,18,17,20,18.30
2012,07,18,17,21,18.30
2012,07,18,17,22,18.30
2012,07,18,17,23,18.30
2012,07,18,17,24,18.30
2012,07,18,17,25,18.30
2012,07,18,17,26,18.30
2012,07,18,17,27,18.30
2012,07,18,17,28,18.30
2012,07,18,17,29,18.40
2012,07,18,17,30,18.40
2012,07,18,17,31,18.50
2012,07,18,17,32,18.50
2012,07,18,17,33,18.50
2012,07,18,17,34,18.60
2012,07,18,17,35,18.60
2012,07,18,17,36,18.50
2012,07,18,17,37,18.50
2012,07,18,17,38,18.50
2012,07,18,17,39,18.50
2012,07,18,17,40,18.50